Flag for U.S.A. Weather past 2 weeks in Lowell, Massachusetts, U.S.A.

Now
28 °F

Mostly cloudy.


Feels Like: 28 °F
Forecast: 21 / 34 °F
Wind: No wind

Location: Hanscom Field

Current Time: Jan 30, 2015 at 12:50:04 AM

Latest Report: Jan 29, 2015 at 11:56 PM


Visibility: 10 mi

Pressure: 30.09 "Hg

Humidity: 69%

Dew point: 19 °F

Location of LowellLocation

Historic Weather in Lowell — Graph

°F

Lowell temperature yesterday

Maximum temperature yesterday: 30 °F (at 12:56 PM)
Minimum temperature yesterday: -11 °F (at 4:56 AM)
Average temperature yesterday: 14 °F

Past Weeks' High & Low Weather Summary

 TemperatureHumidityPressure
High50 °F (Jan 18, 6:56 PM)100% (Jan 18, 2:56 PM)30.42 "Hg (Jan 18, 2:56 PM)
Low-11 °F (Jan 29, 4:56 AM)21% (Jan 17, 2:56 PM)29.22 "Hg (Jan 24, 4:56 PM)
Average24 °F69%29.97 "Hg
* Reported Jan 14 10:56 PM — Jan 29 10:56 PM, Lowell, Weather by CustomWeather, © 2014

Note: Actual official high and low records may vary slightly from our data, if they occured in-between our weather recording intervals... More about our weather records

Advertising

Lowell weather history for previous 24 hours

 ConditionsComfort  
Time TempWeatherWind HumidityBarometerVisibility
10:56 PM
Jan 29
27 °FMostly cloudy.No wind69%30.11 "Hg10 mi
9:56 PM28 °FOvercast.8 mph69%30.14 "Hg10 mi
8:56 PM27 °FOvercast.3 mph72%30.14 "Hg10 mi
7:56 PM27 °FPassing clouds.3 mph75%30.18 "Hg10 mi
6:56 PM26 °FClear.6 mph77%30.19 "Hg10 mi
5:56 PM26 °FClear.5 mph74%30.21 "Hg10 mi
4:56 PM26 °FClear.6 mph69%30.21 "Hg10 mi
3:56 PM30 °FSunny.7 mph64%30.21 "Hg10 mi
2:56 PM30 °FSunny.7 mph59%30.24 "Hg10 mi
1:56 PM30 °FSunny.No wind47%30.25 "Hg10 mi
12:56 PM30 °FSunny.No wind34%30.28 "Hg10 mi
11:56 AM25 °FSunny.No wind38%30.31 "Hg10 mi
10:56 AM18 °FSunny.No wind52%30.36 "Hg10 mi
9:56 AM10 °FSunny.No wind67%30.37 "Hg10 mi
8:56 AM-3 °FSunny.No wind95%30.38 "Hg10 mi
7:56 AM-9 °FSunny.No wind91%30.37 "Hg10 mi
6:56 AM-8 °FClear.No wind83%30.35 "Hg10 mi
5:56 AM-11 °FClear.No wind86%30.34 "Hg7 mi
4:56 AM-11 °FClear.No wind82%30.34 "Hg10 mi
3:56 AM-7 °FClear.No wind91%30.33 "Hg10 mi
2:56 AMN/AClear.No windN/A30.32 "Hg10 mi
1:56 AM-5 °FClear.No wind91%30.32 "Hg10 mi
12:56 AM-1 °FClear.No wind86%30.29 "Hg10 mi
Weather by CustomWeather, © 2014

See weather overviewHow to use our weather pages